When you browse on this site, cookies collect data to enhance your experience and personalize the content and advertising you see.
Visit our Privacy Policy to learn more. By continuing to use the site, you agree to this use of cookies and data.
  • In Italy
  • List of Countries
  • For 7 days
  • Water Temperature
  • Satellite Maps
  • Weather Map
  • Weather Widgets
  • user-avatar
    Login

    Hourly Weather Djelfa

    Today, 18 June, Tuesday

    Time Temperature Precipitation Wind Pressure Humidity
    00:00 +22°C° 0 mm 5 mps 666 mmHg 50%
    01:00 +22°C° 0 mm 4 mps 666 mmHg 49%
    02:00 +21°C° 0 mm 4 mps 665 mmHg 48%
    03:00 +21°C° 0 mm 4 mps 665 mmHg 47%
    04:00 +21°C° 0 mm 5 mps 665 mmHg 44%
    05:00 +22°C° 0 mm 5 mps 665 mmHg 42%
    06:00 +23°C° 0 mm 6 mps 666 mmHg 39%
    07:00 +24°C° 0 mm 6 mps 666 mmHg 34%
    08:00 +27°C° 0 mm 5 mps 667 mmHg 29%
    09:00 +29°C° 0 mm 5 mps 668 mmHg 24%
    10:00 +32°C° 0 mm 5 mps 668 mmHg 22%
    11:00 +33°C° 0 mm 4 mps 668 mmHg 19%
    12:00 +34°C° 0 mm 4 mps 668 mmHg 17%
    13:00 +35°C° 0 mm 4 mps 667 mmHg 16%
    14:00 +35°C° 0 mm 4 mps 667 mmHg 15%
    15:00 +36°C° 0 mm 4 mps 667 mmHg 14%
    16:00 +36°C° 0 mm 4 mps 667 mmHg 14%
    17:00 +35°C° 0 mm 4 mps 667 mmHg 14%
    18:00 +35°C° 0 mm 4 mps 666 mmHg 15%
    19:00 +33°C° 0 mm 3 mps 666 mmHg 17%
    20:00 +30°C° 0 mm 3 mps 666 mmHg 19%
    21:00 +29°C° 0 mm 2 mps 666 mmHg 21%
    22:00 +28°C° 0 mm 4 mps 666 mmHg 23%
    23:00 +27°C° 0 mm 5 mps 666 mmHg 24%

    Tomorrow, 19 June, Wednesday

    Time Temperature Precipitation Wind Pressure Humidity
    00:00 +27°C° 0 mm 7 mps 666 mmHg 25%
    01:00 +26°C° 0 mm 6 mps 666 mmHg 27%
    02:00 +26°C° 0 mm 6 mps 666 mmHg 28%
    03:00 +24°C° 0 mm 6 mps 666 mmHg 30%
    04:00 +24°C° 0 mm 6 mps 666 mmHg 29%
    05:00 +26°C° 0 mm 5 mps 666 mmHg 29%
    06:00 +26°C° 0 mm 5 mps 667 mmHg 29%
    07:00 +28°C° 0 mm 6 mps 667 mmHg 26%
    08:00 +30°C° 0 mm 6 mps 668 mmHg 23%
    09:00 +33°C° 0 mm 7 mps 668 mmHg 20%
    10:00 +34°C° 0 mm 7 mps 668 mmHg 19%
    11:00 +35°C° 0 mm 7 mps 668 mmHg 17%
    12:00 +38°C° 0 mm 7 mps 668 mmHg 15%
    13:00 +38°C° 0 mm 7 mps 668 mmHg 14%
    14:00 +39°C° 0 mm 7 mps 667 mmHg 13%
    15:00 +39°C° 0 mm 7 mps 667 mmHg 12%
    16:00 +39°C° 0 mm 7 mps 667 mmHg 12%
    17:00 +38°C° 0 mm 7 mps 667 mmHg 13%
    18:00 +36°C° 0 mm 7 mps 667 mmHg 13%
    19:00 +35°C° 0 mm 7 mps 667 mmHg 15%
    20:00 +34°C° 0 mm 7 mps 667 mmHg 17%
    21:00 +32°C° 0 mm 7 mps 667 mmHg 18%
    22:00 +30°C° 0 mm 6 mps 666 mmHg 19%
    23:00 +29°C° 0 mm 6 mps 666 mmHg 20%

    Day after tomorrow, 20 June, Thursday

    Time Temperature Precipitation Wind Pressure Humidity
    00:00 +29°C° 0 mm 6 mps 666 mmHg 21%
    01:00 +28°C° 0 mm 7 mps 666 mmHg 22%
    02:00 +28°C° 0 mm 7 mps 665 mmHg 22%
    03:00 +27°C° 0 mm 7 mps 665 mmHg 22%
    04:00 +27°C° 0 mm 7 mps 665 mmHg 22%
    05:00 +28°C° 0 mm 7 mps 666 mmHg 21%
    06:00 +28°C° 0 mm 7 mps 666 mmHg 20%
    07:00 +30°C° 0 mm 7 mps 666 mmHg 18%
    08:00 +33°C° 0 mm 8 mps 667 mmHg 16%
    09:00 +35°C° 0 mm 9 mps 668 mmHg 14%
    10:00 +37°C° 0 mm 9 mps 668 mmHg 13%
    11:00 +38°C° 0 mm 9 mps 668 mmHg 11%
    12:00 +39°C° 0 mm 9 mps 668 mmHg 10%
    13:00 +39°C° 0 mm 9 mps 667 mmHg 10%
    14:00 +39°C° 0 mm 9 mps 667 mmHg 9%
    15:00 +39°C° 0 mm 9 mps 666 mmHg 9%
    16:00 +39°C° 0 mm 8 mps 666 mmHg 9%
    17:00 +38°C° 0 mm 7 mps 666 mmHg 10%
    18:00 +36°C° 0 mm 7 mps 666 mmHg 10%
    19:00 +35°C° 0 mm 6 mps 666 mmHg 11%
    20:00 +33°C° 0 mm 6 mps 666 mmHg 12%
    21:00 +32°C° 0 mm 6 mps 665 mmHg 13%
    22:00 +30°C° 0 mm 6 mps 665 mmHg 13%
    23:00 +30°C° 0 mm 6 mps 665 mmHg 13%

    21 June, Friday

    Time Temperature Precipitation Wind Pressure Humidity
    00:00 +29°C° 0 mm 7 mps 665 mmHg 13%
    01:00 +29°C° 0 mm 6 mps 665 mmHg 14%
    02:00 +28°C° 0 mm 6 mps 665 mmHg 15%
    03:00 +27°C° 0 mm 6 mps 665 mmHg 16%
    04:00 +27°C° 0 mm 6 mps 665 mmHg 16%
    05:00 +27°C° 0 mm 6 mps 665 mmHg 17%
    06:00 +28°C° 0 mm 6 mps 666 mmHg 17%
    07:00 +30°C° 0 mm 7 mps 666 mmHg 16%
    08:00 +33°C° 0 mm 9 mps 667 mmHg 15%
    09:00 +36°C° 0 mm 11 mps 667 mmHg 13%
    10:00 +37°C° 0 mm 11 mps 667 mmHg 12%
    11:00 +39°C° 0 mm 11 mps 667 mmHg 10%
    12:00 +41°C° 0 mm 11 mps 667 mmHg 8%
    13:00 +41°C° 0 mm 11 mps 667 mmHg 8%
    14:00 +42°C° 0 mm 10 mps 666 mmHg 8%
    15:00 +42°C° 0 mm 10 mps 666 mmHg 8%
    16:00 +40°C° 0 mm 10 mps 666 mmHg 8%
    17:00 +40°C° 0 mm 10 mps 665 mmHg 9%
    18:00 +39°C° 0 mm 10 mps 665 mmHg 9%
    19:00 +37°C° 0 mm 9 mps 665 mmHg 12%
    20:00 +34°C° 0 mm 7 mps 666 mmHg 14%
    21:00 +32°C° 0 mm 6 mps 666 mmHg 17%
    22:00 +30°C° 0 mm 5 mps 665 mmHg 20%
    23:00 +28°C° 0 mm 4 mps 665 mmHg 23%

    22 June, Saturday

    Time Temperature Precipitation Wind Pressure Humidity
    00:00 +27°C° 0 mm 3 mps 665 mmHg 27%
    01:00 +26°C° 0 mm 3 mps 664 mmHg 28%
    02:00 +25°C° 0 mm 2 mps 664 mmHg 29%
    03:00 +24°C° 0 mm 2 mps 664 mmHg 30%
    04:00 +25°C° 0 mm 3 mps 664 mmHg 26%
    05:00 +27°C° 0 mm 3 mps 665 mmHg 23%
    06:00 +28°C° 0 mm 4 mps 666 mmHg 19%
    07:00 +30°C° 0 mm 7 mps 666 mmHg 17%
    08:00 +33°C° 0 mm 9 mps 667 mmHg 14%
    09:00 +36°C° 0 mm 12 mps 667 mmHg 12%
    10:00 +38°C° 0 mm 12 mps 667 mmHg 11%
    11:00 +39°C° 0 mm 12 mps 667 mmHg 9%
    12:00 +42°C° 0 mm 12 mps 667 mmHg 8%
    13:00 +42°C° 0 mm 12 mps 666 mmHg 8%
    14:00 +42°C° 0 mm 11 mps 666 mmHg 8%
    15:00 +42°C° 0 mm 11 mps 666 mmHg 8%
    16:00 +40°C° 0 mm 10 mps 665 mmHg 8%
    17:00 +40°C° 0 mm 10 mps 665 mmHg 9%
    18:00 +39°C° 0 mm 9 mps 665 mmHg 9%
    19:00 +37°C° 0 mm 9 mps 665 mmHg 11%
    20:00 +35°C° 0 mm 9 mps 666 mmHg 12%
    21:00 +33°C° 0 mm 9 mps 666 mmHg 13%
    22:00 +33°C° 0 mm 9 mps 666 mmHg 13%
    23:00 +32°C° 0 mm 9 mps 666 mmHg 12%

    23 June, Sunday

    Time Temperature Precipitation Wind Pressure Humidity
    00:00 +31°C° 0 mm 9 mps 666 mmHg 12%
    01:00 +31°C° 0 mm 9 mps 665 mmHg 12%
    02:00 +29°C° 0 mm 9 mps 665 mmHg 12%
    03:00 +29°C° 0 mm 9 mps 665 mmHg 12%
    04:00 +29°C° 0 mm 9 mps 666 mmHg 12%
    05:00 +29°C° 0 mm 9 mps 666 mmHg 12%
    06:00 +29°C° 0 mm 10 mps 667 mmHg 12%
    07:00 +32°C° 0 mm 11 mps 667 mmHg 12%
    08:00 +34°C° 0 mm 13 mps 668 mmHg 11%
    09:00 +36°C° 0 mm 14 mps 668 mmHg 10%
    10:00 +37°C° 0 mm 14 mps 668 mmHg 9%
    11:00 +38°C° 0 mm 14 mps 668 mmHg 9%
    12:00 +40°C° 0 mm 14 mps 668 mmHg 8%
    13:00 +41°C° 0 mm 13 mps 668 mmHg 8%
    14:00 +41°C° 0 mm 13 mps 668 mmHg 8%
    15:00 +41°C° 0 mm 13 mps 667 mmHg 8%
    16:00 +39°C° 0 mm 12 mps 667 mmHg 9%
    17:00 +38°C° 0 mm 11 mps 667 mmHg 9%
    18:00 +37°C° 0 mm 11 mps 667 mmHg 10%
    19:00 +35°C° 0 mm 9 mps 667 mmHg 11%
    20:00 +33°C° 0 mm 8 mps 667 mmHg 12%
    21:00 +32°C° 0 mm 7 mps 667 mmHg 13%
    22:00 +30°C° 0 mm 7 mps 667 mmHg 14%
    23:00 +29°C° 0 mm 7 mps 667 mmHg 15%
    Show more